TimeCST,TemperatureF,Dew PointF,Humidity,Sea Level PressureIn,VisibilityMPH,Wind Direction,Wind SpeedMPH,Gust SpeedMPH,PrecipitationIn,Events,Conditions,WindDirDegrees,DateUTC
12:15 AM,38.5,32.0,78,30.16,10.0,West,4.6,-,N/A,,Clear,270,2013-02-12 06:15:00
12:35 AM,36.9,32.0,83,30.16,10.0,Calm,Calm,-,N/A,,Clear,0,2013-02-12 06:35:00
12:55 AM,37.6,32.0,80,30.15,10.0,WNW,4.6,-,N/A,,Clear,290,2013-02-12 06:55:00
1:15 AM,38.3,32.0,78,30.15,10.0,West,3.5,-,N/A,,Clear,270,2013-02-12 07:15:00
1:35 AM,34.0,32.0,92,30.15,10.0,WSW,3.5,-,N/A,,Clear,250,2013-02-12 07:35:00
1:55 AM,36.9,32.0,83,30.15,10.0,West,3.5,-,N/A,,Clear,270,2013-02-12 07:55:00
2:15 AM,33.8,31.6,92,30.14,10.0,Calm,Calm,-,N/A,,Clear,0,2013-02-12 08:15:00
2:35 AM,33.3,31.6,94,30.15,10.0,Calm,Calm,-,N/A,,Clear,0,2013-02-12 08:35:00
2:55 AM,32.2,31.3,96,30.15,10.0,Calm,Calm,-,N/A,,Clear,0,2013-02-12 08:55:00
3:15 AM,32.0,31.3,97,30.15,10.0,Calm,Calm,-,N/A,,Clear,0,2013-02-12 09:15:00
3:35 AM,32.0,31.3,97,30.16,10.0,Calm,Calm,-,N/A,,Clear,0,2013-02-12 09:35:00
3:55 AM,33.1,32.2,96,30.16,10.0,SW,4.6,-,N/A,,Clear,230,2013-02-12 09:55:00
4:15 AM,32.0,31.3,97,30.16,10.0,South,3.5,-,N/A,,Clear,190,2013-02-12 10:15:00
4:35 AM,31.8,31.3,98,30.16,10.0,Calm,Calm,-,N/A,,Clear,0,2013-02-12 10:35:00
4:55 AM,32.0,31.1,96,30.17,10.0,Calm,Calm,-,N/A,,Clear,0,2013-02-12 10:55:00
5:35 AM,31.8,31.1,97,30.17,10.0,Calm,Calm,-,N/A,,Clear,0,2013-02-12 11:35:00
5:55 AM,30.7,30.4,99,30.17,10.0,Calm,Calm,-,N/A,,Clear,0,2013-02-12 11:55:00
6:15 AM,31.1,30.9,99,30.17,10.0,Calm,Calm,-,N/A,,Clear,0,2013-02-12 12:15:00
6:35 AM,30.7,30.7,100,30.17,10.0,Calm,Calm,-,N/A,,Clear,0,2013-02-12 12:35:00
6:55 AM,30.2,30.2,100,30.16,10.0,Calm,Calm,-,N/A,,Clear,0,2013-02-12 12:55:00
7:15 AM,30.6,30.6,100,30.16,10.0,Calm,Calm,-,N/A,,Clear,0,2013-02-12 13:15:00
7:35 AM,32.0,32.0,100,30.16,10.0,Calm,Calm,-,N/A,,Clear,0,2013-02-12 13:35:00
7:55 AM,34.2,33.3,97,30.16,10.0,Calm,Calm,-,N/A,,Clear,0,2013-02-12 13:55:00
8:15 AM,36.3,35.2,96,30.16,10.0,Calm,Calm,-,N/A,,Clear,0,2013-02-12 14:15:00
8:35 AM,38.7,36.0,90,30.14,10.0,Calm,Calm,-,N/A,,Clear,0,2013-02-12 14:35:00
8:55 AM,40.5,37.6,89,30.16,10.0,Calm,Calm,-,N/A,,Clear,0,2013-02-12 14:55:00
9:15 AM,41.9,37.4,84,30.15,10.0,NNE,4.6,-,N/A,,Clear,30,2013-02-12 15:15:00
9:35 AM,43.5,36.9,77,30.15,10.0,NNE,4.6,-,N/A,,Clear,20,2013-02-12 15:35:00
9:55 AM,45.5,36.3,70,30.14,10.0,ENE,3.5,-,N/A,,Clear,60,2013-02-12 15:55:00
10:15 AM,46.4,33.6,61,30.13,10.0,East,6.9,-,N/A,,Clear,80,2013-02-12 16:15:00
10:35 AM,47.7,34.2,60,30.11,10.0,ENE,9.2,-,N/A,,Clear,60,2013-02-12 16:35:00
10:55 AM,47.5,33.8,59,30.11,10.0,NE,5.8,-,N/A,,Clear,40,2013-02-12 16:55:00
11:15 AM,47.8,33.6,58,30.13,10.0,ESE,3.5,-,N/A,,Clear,120,2013-02-12 17:15:00
11:35 AM,48.2,33.6,57,30.13,10.0,ENE,4.6,-,N/A,,Clear,70,2013-02-12 17:35:00
11:55 AM,48.6,32.5,54,30.14,10.0,Calm,Calm,-,N/A,,Clear,0,2013-02-12 17:55:00
12:15 PM,48.4,32.2,54,30.13,10.0,Calm,Calm,-,N/A,,Clear,0,2013-02-12 18:15:00
12:35 PM,48.7,33.8,56,30.11,10.0,Calm,Calm,-,N/A,,Clear,0,2013-02-12 18:35:00
12:55 PM,49.1,33.3,54,30.09,10.0,Calm,Calm,-,N/A,,Clear,0,2013-02-12 18:55:00
1:15 PM,49.3,33.1,54,30.09,10.0,Calm,Calm,-,N/A,,Clear,0,2013-02-12 19:15:00
1:35 PM,49.1,33.6,55,30.08,10.0,Calm,Calm,-,N/A,,Clear,0,2013-02-12 19:35:00
1:55 PM,49.1,34.9,58,30.06,10.0,NNE,5.8,-,N/A,,Clear,30,2013-02-12 19:55:00
2:15 PM,49.1,34.5,57,30.07,10.0,Calm,Calm,-,N/A,,Scattered Clouds,0,2013-02-12 20:15:00
2:35 PM,48.9,34.7,58,30.05,10.0,NE,3.5,-,N/A,,Scattered Clouds,40,2013-02-12 20:35:00
2:55 PM,48.9,36.0,61,30.04,10.0,NNE,3.5,-,N/A,,Scattered Clouds,30,2013-02-12 20:55:00
3:15 PM,49.1,33.4,55,30.02,10.0,ENE,4.6,-,N/A,,Scattered Clouds,60,2013-02-12 21:15:00
3:35 PM,49.1,35.1,58,30.01,10.0,NNE,8.1,-,N/A,,Scattered Clouds,30,2013-02-12 21:35:00
3:55 PM,48.4,35.4,61,29.99,10.0,NE,5.8,-,N/A,,Clear,50,2013-02-12 21:55:00
4:15 PM,48.0,36.3,64,29.99,10.0,NE,4.6,-,N/A,,Clear,50,2013-02-12 22:15:00
4:35 PM,47.5,37.4,68,29.98,10.0,NNE,6.9,-,N/A,,Scattered Clouds,30,2013-02-12 22:35:00
4:55 PM,46.8,38.3,72,30.01,10.0,NNE,4.6,-,N/A,,Scattered Clouds,20,2013-02-12 22:55:00
5:15 PM,45.9,37.6,73,29.98,10.0,NNE,4.6,-,N/A,,Scattered Clouds,20,2013-02-12 23:15:00
5:35 PM,44.8,38.7,79,29.98,10.0,NNE,5.8,-,N/A,,Clear,20,2013-02-12 23:35:00
5:55 PM,45.1,36.3,71,29.98,10.0,Calm,Calm,-,N/A,,Clear,0,2013-02-12 23:55:00
6:15 PM,43.9,37.6,78,29.99,10.0,Calm,Calm,-,N/A,,Clear,0,2013-02-13 00:15:00
6:35 PM,44.6,36.5,73,29.97,10.0,NE,3.5,-,N/A,,Scattered Clouds,40,2013-02-13 00:35:00
6:55 PM,43.9,37.6,78,29.96,10.0,NE,3.5,-,N/A,,Mostly Cloudy,50,2013-02-13 00:55:00
7:15 PM,44.1,36.5,75,29.96,10.0,Calm,Calm,-,N/A,,Scattered Clouds,0,2013-02-13 01:15:00
7:35 PM,43.2,37.6,81,29.97,10.0,Calm,Calm,-,N/A,,Scattered Clouds,0,2013-02-13 01:35:00
7:55 PM,44.2,36.0,73,29.96,10.0,Calm,Calm,-,N/A,,Overcast,0,2013-02-13 01:55:00
8:15 PM,43.0,37.4,81,29.96,10.0,NNE,4.6,-,N/A,,Overcast,30,2013-02-13 02:15:00
8:35 PM,43.2,36.7,78,29.95,10.0,NNE,4.6,-,N/A,,Mostly Cloudy,30,2013-02-13 02:35:00
8:55 PM,42.8,37.8,82,29.95,10.0,Calm,Calm,-,N/A,,Mostly Cloudy,0,2013-02-13 02:55:00
9:15 PM,42.8,37.2,81,29.93,10.0,Calm,Calm,-,N/A,,Mostly Cloudy,0,2013-02-13 03:15:00
9:35 PM,42.8,37.2,81,29.91,10.0,NE,9.2,-,N/A,,Overcast,50,2013-02-13 03:35:00
9:55 PM,43.2,36.3,77,29.91,10.0,NE,6.9,-,N/A,,Overcast,50,2013-02-13 03:55:00
10:15 PM,42.6,37.0,81,29.90,10.0,East,4.6,-,N/A,,Overcast,90,2013-02-13 04:15:00
10:35 PM,43.0,36.0,76,29.89,10.0,NE,5.8,-,N/A,,Overcast,50,2013-02-13 04:35:00
10:55 PM,42.8,36.1,77,29.88,10.0,NE,5.8,-,N/A,,Overcast,50,2013-02-13 04:55:00
11:15 PM,42.8,36.1,77,29.87,10.0,NE,5.8,-,N/A,,Overcast,40,2013-02-13 05:15:00
11:35 PM,42.8,36.5,78,29.88,10.0,Calm,Calm,-,N/A,,Overcast,0,2013-02-13 05:35:00
11:55 PM,42.3,36.7,81,29.89,10.0,Calm,Calm,-,N/A,,Overcast,0,2013-02-13 05:55:00